User: anonymous   Login
Location: Deep South Regional Star Gaze
(30.9929°N, 90.9586°W)
Time: 17:39:03
(UTC-05:00)
Language:

H-2A R/B - Orbit

View from above orbital plane
View from above orbital plane
View from above satellite
View from above satellite

Ground track
Ground track

The orbit data is extracted from the following two-line orbital elements,

1 26899U 01038B   17116.28342065 +.00003441 +00000-0 +71867-3 0  9996
2 26899 028.1414 085.9318 7131666 154.3029 273.2819 02.47792593135227
Epoch (UTC): 26 April 2017 06:48:07
Eccentricity: 0.7131666
inclination: 28.1414°
perigee height: 238 km
apogee height: 33141 km
right ascension of ascending node: 85.9318°
argument of perigee: 154.3029°
revolutions per day: 2.47792593
mean anomaly at epoch: 273.2819°
orbit number at epoch: 13522

The dashed part of the orbit path shows where the satellite is in the earth's shadow,  

DLR